Tracking 18840 objects as of 18-November-2017
HD Live streaming from Space Station
objects crossing your sky now

FENGYUN 1C DEB

Track FENGYUN 1C DEB now!
10-day predictions


NORAD ID: 30527
Int'l Code: 1999-025AJR
Perigee: 850.5 km
Apogee: 1,487.8 km
Inclination: 100.3 °
Period: 108.6 minutes
Semi major axis: 7540 km
RCS: 0.0117 m2 (small)
Launch date: May 10, 1999
Source: People's Republic of China (PRC)
Launch site: Taiyaun Space Center, China (TSC)

Note: This is SATELLITE DEBRIS
aabbcc
Your satellite tracking list
Your tracking list is empty




NASA's NSSDC Master Catalog

Two Line Element Set (TLE):
1 30527U 99025AJR 17321.09524740 +.00000503 +00000-0 +77210-3 0  9995
2 30527 100.2853 006.8429 0422654 330.3791 055.1554 13.25964793522447
Source of the keplerian elements: AFSPC